Regional Weather Roundup
Issued by NWS Kansas City/Pleasant Hill, MO

Home | Current Version | Previous Version | Text Only | Print | Product List | Glossary On
Versions: 1 2 3 4 5 6 7 8 9 10 11 12 13 14 15 16 17 18 19 20 21 22 23 24 25 26 27 28 29 30 31 32 33 34 35 36 37 38 39 40 41 42 43 44 45 46 47 48 49 50
000
ASUS43 KEAX 011411
RWREAX

WEATHER ROUNDUP FOR EASTERN KANSAS AND NORTHWEST MISSOURI
NATIONAL WEATHER SERVICE KANSAS CITY/PLEASANT HILL MO
900 AM CDT WED APR 01 2015

KSZ040-057-103>105-MOZ028-029-037-043-011500-
...KANSAS CITY METROPOLITAN AREA...

CITY           SKY/WX    TMP DP  RH WIND       PRES   REMARKS
K.C. INTL      CLOUDY    60  41  49 SE14      29.87F
K.C. DOWNTOWN  CLOUDY    62  40  44 SE10      29.89F
LEES SUMMIT    PTSUNNY   60  40  47 SE15G21   29.90F
OLATHE - IXD   CLOUDY    57  43  59 SE15      29.88F
OLATHE - OJC   CLOUDY    58  42  55 SE13      29.88F
LAWRENCE       CLOUDY    56  43  61 SE9       29.87F

$$

MOZ001>008-011>017-020>025-030>033-038>040-044>046-053-054-011500-
...NORTHERN AND CENTRAL MISSOURI...

CITY           SKY/WX    TMP DP  RH WIND       PRES   REMARKS
ST. JOSEPH     PTSUNNY   60  40  47 S8        29.87F
MOSBY          CLOUDY    57  37  47 E8        29.89F
WARRENSBURG    PTSUNNY   59  36  41 SE14G20   29.92F
WHITEMAN AFB   PTSUNNY   59  38  45 S14G20    29.93S
CLINTON        MOSUNNY   63  43  48 SE12      29.94F
SEDALIA        PTSUNNY   61  36  39 SE16      29.96S
WARSAW         NOT AVBL
MARSHALL       CLOUDY    63  41  45 S16G22    29.97R
CHILLICOTHE      N/A     59  38  45 S9        29.93S
MOBERLY        PTSUNNY   61  34  36 S12       29.97S
KIRKSVILLE     MOSUNNY   62  37  39 S15       29.95S

$$

MOZ041-047>049-056>058-063>065-088>090-097-011500-
...EASTERN AND SOUTHERN MISSOURI...

CITY           SKY/WX    TMP DP  RH WIND       PRES   REMARKS
ST. LOUIS INTL PTSUNNY   61  36  39 S10       30.02S
SPIRIT OF STL  PTSUNNY   54  44  69 CALM      30.01S
COLUMBIA       PTSUNNY   57  38  48 S12       29.98R
JEFFERSON CITY PTSUNNY   55  38  52 SE7       29.99R
MEXICO         PTSUNNY   55  45  67 SE6       29.98S
HANNIBAL       MOSUNNY   63  32  31 S9        29.98S
ROLLA          MOSUNNY   59  35  40 SE13      29.99R
LEBANON        MOSUNNY   61  36  39 SE12G17   29.98F
OSAGE BEACH    MOSUNNY   61  36  39 SE7       29.99S
SPRINGFIELD    CLOUDY    61  49  64 SE20      29.94F
BRANSON        CLOUDY    57  54  88 E12       29.96F
NEVADA         PTSUNNY   61  52  72 SE9       29.91S
WEST PLAINS    PTSUNNY   59  39  47 SE12      30.03R

$$

IAZ060-094-KSZ022-034>040-054-083-096-NEZ052-066-093-011500-
...KANSAS...SOUTHEAST NEBRASKA AND IOWA...

CITY           SKY/WX    TMP DP  RH WIND       PRES   REMARKS
TOPEKA         PTSUNNY   59  39  47 SE7       29.86S
MANHATTAN      SUNNY     63  47  55 S7        29.81F
EMPORIA        CLOUDY    55  43  63 SE7       29.84S
CHANUTE        CLOUDY    60  50  69 SE10      29.87S
WICHITA        MOSUNNY   58  51  78 S10       29.82R
OMAHA          MOSUNNY   60  33  36 S21G30    29.79F
LINCOLN        SUNNY     61  38  42 S16       29.78F
FALLS CITY     SUNNY     60  35  39 SE15G22   29.83F
LAMONI         SUNNY     56  36  47 S13G21    29.89S
DES MOINES     MOSUNNY   63  33  32 S15       29.86F

$$



USA.gov is the U.S. government's official web portal to all federal, state and local government web resources and services.